Siemreap, Cambodia

5:34 PM +07 on August 20, 2017 (GMT +0700)
Siem Reap

Weather History for VDSR - October, 2013

Change the Weather History Date:

Saturday, October 19, 2013

  Actual Average Record
Temperature  
Mean Temperature 82 °F -  
Max Temperature 86 °F - - ()
Min Temperature 77 °F - - ()
Cooling Degree Days 16    
Growing Degree Days 32 (Base 50)    
Moisture  
Dew Point 75 °F    
Average Humidity 81    
Maximum Humidity 94    
Minimum Humidity 70    
Precipitation  
Precipitation 0.00 in - - ()
Sea Level Pressure  
Sea Level Pressure 29.87 in    
Wind  
Wind Speed 2 mph ()    
Max Wind Speed 8 mph    
Max Gust Speed 13 mph    
Visibility 5.8 miles    
Events Rain , Thunderstorm    
T = Trace of Precipitation, MM = Missing Value Source: Averaged Metar Reports

Daily Weather History Graph

Daily Weather History Graph

Search for Another Location

Airport or City:

Trip Planner

Search our weather history database for the weather conditions in past years. The results will help you decide how hot, cold, wet, or windy it might be!

Date:

Astronomy

Oct. 19, 2013 Rise Set
Actual Time 5:55 AM +07 5:43 PM +07
Civil Twilight 5:34 AM +07 6:04 PM +07
Nautical Twilight 5:09 AM +07 6:29 PM +07
Astronomical Twilight 4:44 AM +07 6:54 PM +07
Moon 5:58 PM +07 (10/19) 5:56 AM +07 (10/19)
Length of Visible Light 12h 30m
Length of Day
11h 47m
Full, 100% of the Moon is Illuminated
Oct 19
Full
Oct 27
Last Quarter
Nov 3
New
Nov 10
First Quarter
Nov 17
Full

Hourly Weather History & Observations

Time (+07) Temp. Heat Index Dew Point Humidity Pressure Visibility Wind Dir Wind Speed Gust Speed Precip Events Conditions
12:00 AM 77.0 °F - 75.2 °F 94% 29.86 in 5.0 mi NE 2.3 mph - N/A Rain , Thunderstorm Light Thunderstorms and Rain
12:30 AM 77.0 °F - 75.2 °F 94% 29.86 in 5.0 mi NNE 3.5 mph - N/A Rain , Thunderstorm Light Thunderstorms and Rain
1:00 AM 77.0 °F - 75.2 °F 94% 29.86 in 5.6 mi NE 4.6 mph - N/A Rain , Thunderstorm Light Thunderstorms and Rain
7:00 AM 78.8 °F - 73.4 °F 83% 29.89 in 5.6 mi SSE 4.6 mph - N/A   Scattered Clouds
7:30 AM 78.8 °F - 73.4 °F 83% 29.89 in 5.6 mi ESE 5.8 mph - N/A   Scattered Clouds
8:00 AM 80.6 °F 85.4 °F 73.4 °F 79% 29.92 in 5.6 mi ESE 8.1 mph - N/A   Scattered Clouds
8:30 AM 80.6 °F 85.4 °F 73.4 °F 79% 29.92 in 5.6 mi ESE 8.1 mph - N/A   Scattered Clouds
9:00 AM 80.6 °F 84.6 °F 71.6 °F 74% 29.95 in 5.6 mi East 5.8 mph - N/A   Scattered Clouds
9:30 AM 82.4 °F 87.2 °F 71.6 °F 70% 29.95 in 5.6 mi ESE 5.8 mph - N/A   Scattered Clouds
10:00 AM 82.4 °F 87.2 °F 71.6 °F 70% 29.92 in 6.2 mi Calm Calm - N/A   Scattered Clouds
10:30 AM 82.4 °F 88.2 °F 73.4 °F 74% 29.92 in 6.2 mi Calm Calm - N/A   Scattered Clouds
11:00 AM 82.4 °F 88.2 °F 73.4 °F 74% 29.92 in 6.2 mi NW 8.1 mph - N/A   Scattered Clouds
11:30 AM 84.2 °F 90.9 °F 73.4 °F 70% 29.92 in 6.2 mi Calm Calm - N/A   Scattered Clouds
12:00 PM 84.2 °F 90.9 °F 73.4 °F 70% 29.89 in 6.2 mi Calm Calm - N/A   Scattered Clouds
12:30 PM 84.2 °F 92.3 °F 75.2 °F 74% 29.89 in 6.2 mi Calm Calm - N/A   Scattered Clouds
1:00 PM 84.2 °F 90.9 °F 73.4 °F 70% 29.86 in 6.2 mi Calm Calm - N/A   Scattered Clouds
1:30 PM 84.2 °F 92.3 °F 75.2 °F 74% 29.86 in 6.2 mi Calm Calm - N/A   Scattered Clouds
2:00 PM 86.0 °F 95.1 °F 75.2 °F 70% 29.83 in 6.2 mi West 6.9 mph - N/A   Scattered Clouds
2:30 PM 86.0 °F 95.1 °F 75.2 °F 70% 29.83 in 6.2 mi WSW 5.8 mph - N/A   Scattered Clouds
3:00 PM 84.2 °F 94.1 °F 77.0 °F 79% 29.83 in 6.2 mi WSW 5.8 mph - N/A   Scattered Clouds
3:30 PM 84.2 °F 94.1 °F 77.0 °F 79% 29.83 in 6.2 mi Calm Calm - N/A   Scattered Clouds
4:00 PM 84.2 °F 94.1 °F 77.0 °F 79% 29.83 in 6.2 mi Calm Calm - N/A Rain Light Rain
4:30 PM 80.6 °F 87.1 °F 77.0 °F 89% 29.83 in 5.6 mi Calm Calm - N/A   Scattered Clouds
5:00 PM 82.4 °F 90.9 °F 77.0 °F 84% 29.80 in 5.6 mi Calm Calm - N/A   Scattered Clouds
5:30 PM 82.4 °F 90.9 °F 77.0 °F 84% 29.80 in 5.6 mi Calm Calm - N/A   Scattered Clouds
6:00 PM 80.6 °F 87.1 °F 77.0 °F 89% 29.80 in 5.6 mi Calm Calm - N/A   Scattered Clouds
6:30 PM 80.6 °F 87.1 °F 77.0 °F 89% 29.83 in 5.6 mi NNW 1.2 mph 12.7 mph N/A   Scattered Clouds
7:00 PM 80.6 °F 87.1 °F 77.0 °F 89% 29.86 in 5.6 mi Calm Calm - N/A   Scattered Clouds
7:30 PM 80.6 °F 87.1 °F 77.0 °F 89% 29.86 in 5.6 mi Calm Calm - N/A   Scattered Clouds
8:00 PM 80.6 °F 86.2 °F 75.2 °F 84% 29.89 in 5.6 mi Calm Calm - N/A   Scattered Clouds
8:30 PM 80.6 °F 86.2 °F 75.2 °F 84% 29.89 in 5.6 mi Calm Calm - N/A   Scattered Clouds
9:00 PM 80.6 °F 86.2 °F 75.2 °F 84% 29.89 in 5.6 mi Calm Calm - N/A   Scattered Clouds
9:30 PM 80.6 °F 86.2 °F 75.2 °F 84% 29.89 in 5.6 mi Calm Calm - N/A   Scattered Clouds
10:00 PM 78.8 °F - 75.2 °F 89% 29.89 in 5.6 mi Calm Calm - N/A   Scattered Clouds
10:30 PM 78.8 °F - 75.2 °F 89% 29.89 in 5.6 mi Calm Calm - N/A   Scattered Clouds
11:00 PM 78.8 °F - 75.2 °F 89% 29.89 in 5.6 mi Calm Calm - N/A   Scattered Clouds
11:30 PM 78.8 °F - 75.2 °F 89% 29.89 in 5.6 mi Calm Calm - N/A   Scattered Clouds